Temp_Advection
nan nan nan nan nan nan nan nan nan nan nan nan nan nan nan nan nan nan nan nan nan nan nan nan nan nan nan nan nan nan nan nan nan nan nan nan nan nan
nan -0 0 0 0 1 1 1 1 1 -1 -1 0 0 0 0 -0 -0 -0 -0 -1 -1 -1 -1 -1 -1 -1 -1 -1 -1 -0 -0 -0 -1 -1 -1 -1 nan
nan 0 0 0 0 0 0 1 1 1 -1 -1 0 -0 0 -0 -0 0 -0 -0 -1 -1 -1 -1 -1 -1 -1 -1 -1 -1 -1 -1 -1 -1 -1 -1 -0 nan
nan 0 0 0 -0 0 0 0 0 0 0 -1 -0 0 -0 0 -0 -0 -0 0 -0 -0 -1 -1 -1 -1 -1 -1 -1 -1 -1 -1 -0 -0 -1 -1 -1 nan
nan -0 -0 -0 -0 -0 -0 0 0 0 0 -0 -1 0 1 -0 -0 -0 -0 -0 -0 -0 -0 -0 -1 -1 -1 -1 -1 -1 -0 -0 -0 -0 -1 -1 -1 nan
nan 0 0 -0 -0 -0 0 -0 -0 0 0 0 -0 -0 -0 -0 0 -0 -0 -0 0 -1 -0 0 -1 -0 -0 -1 -1 -1 -1 -1 -1 -1 -0 -0 -0 nan
nan 0 0 0 0 -0 -0 -0 0 -0 0 0 0 0 -0 -0 0 0 -0 -1 -0 -0 -0 0 -0 -0 0 0 -0 -0 -0 -1 -1 -1 -1 -0 -0 nan
nan -0 0 0 0 0 -0 -0 -0 -0 -0 0 -0 -0 -0 0 0 0 0 -0 -1 -0 -0 -0 -0 -1 0 0 1 -0 -1 -1 -1 -1 -0 -1 -1 nan
nan 0 -0 -0 -0 0 0 -0 -1 -0 0 -0 0 0 -0 -0 -0 0 0 0 -0 0 -0 -2 -0 -1 -1 0 2 2 -0 -1 -1 -1 -1 -0 -0 nan
nan 0 0 -0 -0 -0 -0 0 0 0 0 0 -0 -0 -0 0 0 -0 -0 -1 -1 0 2 -1 -1 -1 -1 -1 0 2 2 0 -0 -1 -1 -0 -0 nan
nan -0 -0 -0 -0 -0 0 0 0 -0 -0 0 0 0 0 0 1 0 0 -0 -1 -3 2 1 -1 -1 -3 -1 -0 2 3 1 0 1 0 -0 -0 nan
nan -0 -0 -0 -0 -0 -0 0 -0 -0 -0 0 -0 -0 0 0 1 1 1 1 0 -3 -0 1 -0 0 -2 -3 -2 1 2 2 1 1 1 -0 0 nan
nan 0 0 -0 -1 -0 -0 0 -0 -1 -0 -1 -1 -0 -0 -0 0 1 1 2 2 -1 0 2 -0 1 0 -4 -7 -0 1 1 0 0 0 1 1 nan
nan -0 -0 -0 0 0 0 -0 0 -0 -0 -0 -1 -1 -1 -0 0 0 1 1 2 1 -0 1 1 0 1 1 -6 -4 -1 0 1 -1 -1 -1 -0 nan
nan 0 0 -0 -0 0 1 0 0 0 -0 -0 -1 -1 -0 -0 -0 -0 -0 -0 0 1 1 0 1 1 1 1 -2 -2 -1 -2 0 0 -0 -0 -0 nan
nan -0 -0 0 -0 -0 -0 0 0 0 0 0 -0 -1 -0 -0 0 0 -1 -0 -1 -1 1 1 1 1 1 1 1 -0 0 -0 -1 0 -0 0 0 nan
nan -0 -1 -0 -0 -0 -0 -0 0 0 1 1 1 -0 -0 -1 -1 0 -0 -0 -0 -1 -1 0 0 0 1 1 1 0 0 0 -0 -0 0 -0 0 nan
nan -0 -0 -0 -0 -0 -1 -1 -0 0 0 0 0 0 -0 -1 -1 -0 0 0 0 -0 -1 -1 -1 -1 -2 -1 0 0 0 0 -0 -0 0 -0 -0 nan
nan -0 -0 -0 -0 -0 0 -0 -0 0 0 0 0 0 0 0 -0 -0 0 0 -0 -0 -0 -0 -0 -1 -1 -3 -2 1 0 0 0 -0 -0 0 0 nan
nan -0 -0 -0 0 0 0 0 -0 0 0 0 0 0 0 0 0 0 0 0 -0 -0 -0 -0 0 0 1 0 -1 -0 1 0 0 0 -0 0 0 nan
nan 0 0 0 0 0 0 0 0 0 0 0 0 0 0 1 0 0 0 0 0 0 -0 -0 0 0 0 0 0 -0 0 0 0 0 0 -0 -0 nan
nan -0 0 0 0 0 0 0 0 0 0 1 0 0 0 0 0 0 0 0 0 0 -0 -0 0 0 0 -0 0 -0 -0 -0 -0 0 0 -0 -0 nan
nan nan nan nan nan nan nan nan nan nan nan nan nan nan nan nan nan nan nan nan nan nan nan nan nan nan nan nan nan nan nan nan nan nan nan nan nan nan
Wind_Speed
19 20 21 21 23 24 25 26 25 33 41 26 15 30 29 29 30 30 29 30 32 34 36 37 38 37 39 39 38 38 40 43 46 48 49 49 47 46
20 21 22 23 24 25 26 27 29 29 40 38 38 34 32 31 32 30 31 33 33 35 38 38 39 43 43 42 45 46 47 45 43 44 44 44 44 45
21 23 24 25 27 28 28 29 30 28 37 53 39 40 35 33 33 31 32 32 37 42 37 37 39 38 38 40 41 42 43 43 44 43 42 42 42 41
23 24 26 27 28 28 28 28 28 27 31 43 45 42 38 35 33 33 38 42 35 35 36 37 37 38 39 38 40 41 41 42 42 42 43 43 43 42
24 26 27 27 28 28 27 26 27 27 28 34 45 46 41 33 37 41 35 37 33 35 38 36 35 36 37 39 39 40 41 41 41 42 42 42 42 43
25 26 26 26 27 26 25 25 24 29 34 34 39 35 38 46 39 39 39 39 38 38 44 37 36 37 37 38 39 39 39 38 38 39 40 40 40 41
26 26 25 25 24 23 24 26 28 30 35 38 30 39 40 40 37 39 40 43 43 37 43 39 37 47 45 39 37 36 35 35 36 37 38 38 38 39
27 27 26 26 26 23 25 24 25 29 36 36 39 38 38 34 40 41 40 43 44 34 32 52 42 47 44 42 38 36 37 38 38 39 40 40 41 41
26 26 27 26 28 28 29 28 31 24 33 35 36 33 37 39 39 44 45 41 42 45 39 49 44 46 44 44 42 37 35 35 36 38 39 40 41 42
24 25 27 30 28 28 32 32 36 36 32 30 29 34 35 36 39 36 37 40 43 44 31 41 44 43 46 48 34 23 29 31 31 33 35 36 38 40
24 25 28 25 28 27 29 36 33 33 33 28 30 29 35 31 26 27 33 34 41 43 41 30 33 44 48 44 31 40 38 33 31 31 33 35 38 40
24 25 26 27 27 27 31 32 33 33 32 32 34 35 27 25 24 26 30 31 34 37 33 32 40 33 30 32 44 44 37 36 35 34 32 32 32 37
26 26 28 28 27 30 28 29 27 28 30 34 32 29 28 28 27 29 29 28 32 35 35 29 36 36 26 38 50 41 41 42 39 31 27 30 31 30
26 29 30 29 30 29 27 25 24 25 28 27 28 31 31 29 29 30 29 27 28 31 29 23 29 32 35 42 44 42 43 43 38 34 42 36 34 32
27 27 29 31 32 29 24 21 23 25 25 26 30 31 30 30 31 33 31 29 30 28 26 23 24 29 33 37 41 41 42 47 31 45 46 41 38 35
29 31 32 29 26 23 22 22 24 25 24 27 31 31 30 30 32 34 33 33 34 32 28 26 26 29 31 30 30 34 38 33 49 47 44 37 33 24
28 30 30 28 27 25 24 26 27 27 28 29 29 30 31 33 33 32 31 32 31 35 35 29 28 29 26 26 28 27 37 41 44 46 41 38 30 19
27 28 27 26 25 26 27 30 29 29 29 29 29 31 32 33 33 31 28 30 30 33 33 31 32 34 34 32 22 29 34 38 43 43 36 33 27 24
25 24 25 26 26 26 28 30 32 30 29 30 31 31 30 31 30 29 28 29 30 30 31 28 28 29 29 29 32 27 31 34 40 45 36 26 24 22
23 24 25 25 25 26 29 31 31 30 30 31 30 28 28 29 28 27 28 29 30 29 30 27 24 25 24 24 24 29 25 26 33 38 42 26 17 12
24 24 24 24 25 27 29 30 30 30 32 30 27 27 29 29 28 27 27 26 27 25 28 27 23 20 19 20 23 29 28 22 21 30 37 30 26 24
24 24 24 24 25 28 30 29 29 31 31 28 27 28 29 28 28 27 25 27 26 22 25 24 21 18 18 19 24 26 28 27 18 19 22 25 26 20
23 24 25 25 26 28 29 29 30 30 29 28 29 28 28 29 26 24 25 23 24 22 22 22 22 16 18 18 19 23 24 27 25 22 20 23 21 18
Wind_Direction
322 319 317 315 312 310 309 309 306 307 309 310 311 308 310 309 307 309 303 301 300 299 296 292 292 292 292 288 286 282 281 281 281 278 273 271 267 266
319 317 315 313 311 309 306 303 301 296 295 303 306 308 310 307 310 309 303 303 301 302 301 296 291 291 289 285 284 281 280 280 278 275 271 269 264 262
317 315 314 312 311 309 307 303 299 295 291 302 304 310 310 310 309 307 305 303 303 303 301 295 293 293 291 287 286 283 280 279 277 276 273 271 268 265
316 315 315 314 312 312 309 306 302 301 296 300 309 310 311 312 310 308 307 305 301 301 298 296 297 292 289 287 286 284 282 279 277 275 273 271 270 268
318 317 318 317 315 315 311 309 310 302 298 298 301 314 308 312 309 312 309 307 306 303 303 301 297 293 292 291 287 285 283 279 277 274 271 269 267 264
318 318 318 316 315 317 315 311 305 301 303 299 298 302 309 311 310 309 310 311 310 310 309 302 299 298 295 292 289 285 281 279 277 274 271 268 265 262
318 319 317 316 316 311 306 304 305 304 306 303 306 309 310 310 310 312 308 311 310 309 307 306 304 309 309 303 297 291 285 282 279 276 272 268 265 262
318 317 316 316 319 316 307 307 303 305 304 307 310 305 305 306 311 310 310 309 307 314 305 305 309 310 308 310 304 294 290 285 280 275 272 269 265 262
318 319 318 321 325 319 325 314 312 306 302 303 304 301 304 311 314 310 308 305 302 305 307 302 313 307 315 314 313 299 291 286 281 277 273 270 267 262
320 318 321 327 323 324 317 314 309 309 307 308 303 305 307 306 303 301 302 305 307 313 308 296 314 308 319 319 324 321 312 293 287 281 276 272 268 263
323 325 324 318 319 320 314 313 311 307 315 315 306 301 307 308 307 309 310 312 311 314 324 307 313 313 322 328 335 332 321 304 302 292 281 273 268 263
324 320 319 320 321 318 315 313 309 313 322 316 308 315 318 322 326 322 320 313 310 313 325 315 317 323 321 321 323 331 333 333 325 312 298 286 278 268
317 320 320 325 320 316 314 306 311 315 309 309 315 322 330 330 329 329 328 322 317 311 327 315 309 318 304 303 322 331 333 338 333 323 314 307 299 287
319 319 325 320 315 316 316 316 313 311 315 319 324 330 330 331 332 332 331 329 325 322 331 329 310 316 316 310 304 327 336 339 335 325 329 322 310 299
319 320 313 318 321 322 324 324 325 326 326 326 328 328 331 331 332 335 334 333 330 337 340 340 330 330 324 306 301 320 330 335 336 327 327 324 318 312
325 314 316 321 324 327 329 335 336 335 329 326 327 330 333 333 333 337 336 338 335 340 347 349 344 339 328 329 320 321 337 322 335 335 338 335 335 332
312 316 325 330 333 335 337 339 340 339 336 334 334 333 332 332 333 337 338 338 336 341 342 349 350 342 343 342 329 335 338 338 343 343 349 348 6 359
319 323 327 332 334 336 337 339 341 340 339 337 335 333 332 333 333 336 338 340 338 342 344 349 346 348 350 353 349 342 345 348 352 352 1 1 15 13
325 327 331 334 335 337 337 338 337 340 339 337 335 336 336 334 335 339 341 341 339 342 345 346 348 350 341 329 343 358 349 356 1 0 6 14 24 20
334 333 334 336 337 337 338 336 337 339 339 337 338 337 339 339 340 341 342 340 342 342 341 351 349 345 338 328 325 354 6 0 12 4 5 22 41 43
336 335 336 337 338 337 336 336 337 337 338 337 340 343 345 342 341 342 341 343 342 342 344 347 346 341 336 348 352 354 2 9 22 22 15 16 17 25
335 334 339 339 337 336 337 337 337 339 341 342 343 343 343 342 340 341 342 342 344 342 341 344 347 347 354 354 357 359 2 7 19 36 44 40 23 8
337 338 339 339 338 337 338 340 340 342 342 342 343 342 341 342 343 343 343 342 342 340 343 350 354 359 3 2 360 5 6 14 22 29 38 50 55 63
Height
1481 1478 1476 1473 1470 1467 1463 1460 1455 1438 1427 1430 1428 1427 1422 1417 1412 1407 1403 1398 1394 1390 1385 1380 1375 1371 1366 1362 1360 1357 1355 1352 1351 1349 1347 1346 1345 1344
1476 1473 1471 1468 1465 1461 1458 1454 1450 1444 1426 1426 1420 1417 1414 1409 1403 1399 1394 1388 1383 1379 1375 1370 1365 1360 1355 1351 1348 1345 1342 1338 1336 1334 1332 1331 1330 1330
1472 1468 1465 1462 1458 1455 1451 1447 1443 1439 1427 1408 1413 1408 1404 1399 1396 1391 1386 1380 1373 1368 1363 1357 1353 1348 1344 1339 1335 1331 1328 1325 1322 1320 1318 1317 1316 1315
1466 1463 1459 1455 1452 1448 1444 1439 1435 1431 1425 1409 1403 1399 1397 1392 1387 1381 1376 1370 1364 1358 1352 1346 1343 1337 1332 1327 1323 1318 1314 1311 1309 1306 1305 1303 1302 1301
1460 1456 1453 1448 1444 1441 1437 1432 1428 1423 1418 1410 1397 1393 1388 1384 1377 1373 1367 1359 1354 1348 1340 1336 1331 1325 1320 1316 1310 1306 1301 1297 1295 1293 1291 1289 1288 1288
1454 1451 1447 1443 1438 1434 1430 1426 1422 1417 1411 1404 1395 1389 1383 1376 1371 1363 1356 1351 1345 1338 1328 1325 1319 1313 1308 1302 1296 1291 1287 1283 1281 1278 1276 1275 1274 1273
1449 1445 1441 1437 1434 1430 1426 1421 1416 1410 1404 1396 1390 1384 1377 1370 1364 1357 1350 1341 1334 1332 1319 1312 1308 1299 1292 1286 1281 1276 1272 1269 1267 1264 1262 1261 1260 1259
1442 1438 1434 1430 1426 1422 1418 1414 1411 1404 1398 1391 1384 1378 1372 1366 1358 1351 1344 1336 1321 1324 1315 1299 1299 1287 1282 1275 1269 1264 1260 1257 1253 1250 1248 1246 1245 1245
1436 1431 1427 1423 1419 1413 1409 1405 1402 1397 1394 1387 1378 1372 1365 1360 1353 1345 1337 1330 1321 1312 1308 1290 1289 1277 1271 1264 1257 1252 1247 1243 1240 1236 1233 1231 1230 1229
1430 1426 1420 1415 1411 1407 1402 1397 1392 1388 1384 1379 1372 1365 1360 1354 1348 1340 1331 1322 1312 1304 1302 1286 1278 1268 1260 1253 1246 1241 1235 1231 1227 1223 1220 1217 1215 1214
1425 1420 1415 1411 1406 1403 1396 1390 1384 1379 1375 1370 1364 1359 1352 1345 1340 1333 1324 1317 1304 1296 1290 1282 1271 1261 1252 1239 1234 1230 1226 1222 1215 1210 1205 1202 1199 1198
1418 1414 1409 1406 1400 1396 1390 1383 1376 1371 1366 1360 1355 1348 1344 1338 1333 1327 1319 1311 1304 1290 1285 1279 1267 1262 1244 1233 1229 1224 1217 1211 1203 1197 1192 1187 1184 1182
1413 1408 1403 1398 1395 1389 1384 1377 1371 1367 1360 1354 1347 1341 1336 1330 1326 1320 1314 1307 1299 1291 1282 1277 1265 1260 1256 1236 1220 1217 1211 1201 1193 1186 1182 1177 1172 1168
1408 1403 1397 1394 1388 1381 1375 1370 1367 1361 1354 1347 1341 1335 1329 1323 1319 1313 1307 1300 1294 1286 1277 1272 1262 1256 1247 1235 1223 1210 1205 1195 1186 1178 1170 1163 1157 1152
1403 1398 1392 1386 1380 1374 1369 1364 1360 1354 1348 1342 1336 1330 1324 1318 1312 1305 1299 1293 1285 1279 1272 1265 1258 1250 1243 1233 1222 1209 1200 1187 1181 1171 1161 1152 1143 1136
1397 1391 1385 1380 1374 1369 1364 1359 1355 1349 1344 1338 1331 1325 1319 1313 1306 1300 1292 1285 1277 1270 1266 1260 1253 1246 1237 1229 1220 1208 1201 1190 1175 1166 1154 1142 1132 1123
1392 1385 1379 1373 1368 1363 1359 1355 1350 1345 1339 1333 1327 1320 1314 1308 1301 1295 1288 1281 1274 1265 1257 1252 1247 1241 1234 1226 1215 1208 1197 1186 1175 1162 1150 1136 1127 1120
1385 1380 1375 1370 1365 1360 1355 1350 1345 1340 1335 1329 1323 1316 1309 1303 1296 1291 1285 1278 1271 1264 1256 1249 1242 1233 1226 1219 1214 1204 1197 1186 1173 1161 1150 1139 1130 1123
1380 1376 1371 1366 1361 1357 1352 1346 1340 1336 1330 1324 1318 1311 1305 1299 1293 1286 1281 1275 1268 1262 1255 1249 1243 1236 1228 1220 1211 1207 1197 1186 1174 1162 1152 1142 1135 1130
1377 1372 1368 1363 1358 1353 1348 1342 1336 1331 1325 1319 1313 1308 1302 1295 1289 1284 1278 1272 1266 1259 1253 1247 1242 1236 1230 1223 1214 1205 1199 1190 1179 1168 1156 1146 1141 1136
1373 1369 1364 1359 1354 1349 1344 1339 1333 1327 1321 1315 1310 1304 1298 1292 1287 1281 1276 1271 1265 1259 1251 1246 1241 1235 1229 1223 1216 1207 1200 1193 1185 1174 1164 1152 1144 1138
1370 1365 1360 1356 1351 1346 1341 1335 1329 1323 1317 1312 1307 1301 1296 1290 1284 1279 1274 1268 1263 1257 1251 1245 1239 1234 1228 1223 1217 1209 1201 1193 1187 1179 1171 1164 1156 1148
1366 1361 1356 1352 1348 1343 1337 1332 1326 1320 1314 1309 1303 1298 1293 1287 1282 1277 1272 1267 1261 1256 1251 1245 1239 1234 1229 1224 1218 1211 1204 1196 1188 1181 1175 1168 1162 1155